Location: Newark
(50.1751°N, 5.6239°W)
Time: 08:52:27
(UTC+00:00)

Nauka - Pass Details

Date: 20 September 2021
Orbit: 417 x 423 km, 51.6° (Epoch: 23 October)

Event Time Altitude Azimuth Distance (km) Brightness Sun altitude
Rises 20:21:54 0° 254° (WSW) 2,359 ? -19.0°
Reaches altitude 10° 20:23:59 10° 255° (WSW) 1,498 ? -19.3°
Maximum altitude 20:27:21 88° 346° (NNW) 425 ? -19.7°
Enters shadow 20:27:28 83° 59° (ENE) 428 ? -19.8°
